Weather History for Drummond Island, MI

Change the Weather History Date:

Sunday, February 3, 2013

  Actual Average (KCIU) Record (KCIU)
Temperature  
Mean Temperature 4 °F -  
Max Temperature 18 °F 25 °F 41 °F (1999)
Min Temperature -9 °F 1 °F -25 °F (1985)
Degree Days  
Heating Degree Days 61    
Moisture  
Dew Point 5 °F    
Average Humidity 85    
Maximum Humidity 91    
Minimum Humidity 76    
Precipitation  
Precipitation 0.00 in - - ()
Sea Level Pressure  
Sea Level Pressure 29.82 in    
Wind  
Wind Speed 3 mph (WSW)    
Max Wind Speed 13 mph    
Max Gust Speed 18 mph    
Visibility 7 miles    
Events Snow    
Averages and records for this station are not official NWS values.
T = Trace of Precipitation, MM = Missing Value Source: NWS Daily Summary

Daily Weather History Graph

Daily Weather History Graph

Search for Another Location

Airport:

Trip Planner

Search our weather history database for the weather conditions in past years. The results will help you decide how hot, cold, wet, or windy it might be!

Date:

Astronomy

Feb. 03, 2013 Rise Set
Actual Time 7:54 AM EST 5:43 PM EST
Civil Twilight 7:22 AM EST 6:15 PM EST
Nautical Twilight 6:47 AM EST 6:51 PM EST
Astronomical Twilight 6:12 AM EST 7:26 PM EST
Moon 1:21 AM EST (2/3) 11:18 AM EST (2/3)
Length of Visible Light 10h 52m
Length of Day
9h 49m
Waning Gibbous, 49% of the Moon is Illuminated
Feb 3
Waning Gibbous
Feb 10
New
Feb 17
First Quarter
Feb 25
Full
Mar 4
Last Quarter

Hourly Weather History & Observations

Time (EST) Temp. Windchill Dew Point Humidity Pressure Visibility Wind Dir Wind Speed Gust Speed Precip Events Conditions
12:16 AM -9.0 °F - -12.8 °F 83% 29.97 in 10.0 mi Calm Calm - N/A   Clear
12:41 AM -8.5 °F - -11.7 °F 86% 29.96 in 10.0 mi Calm Calm - N/A   Scattered Clouds
12:55 AM -9.4 °F - -13.0 °F 84% 29.95 in 10.0 mi Calm Calm - N/A   Mostly Cloudy
1:16 AM -8.0 °F - -11.7 °F 84% 29.95 in 10.0 mi Calm Calm - N/A   Overcast
1:36 AM -7.6 °F - -11.0 °F 85% 29.94 in 10.0 mi Calm Calm - N/A   Overcast
1:55 AM -7.1 °F - -10.7 °F 84% 29.93 in 10.0 mi Calm Calm - N/A   Scattered Clouds
2:16 AM -6.7 °F - -9.9 °F 86% 29.93 in 10.0 mi Calm Calm - N/A   Mostly Cloudy
2:35 AM -6.2 °F - -9.4 °F 86% 29.92 in 10.0 mi Calm Calm - N/A   Overcast
2:56 AM -3.6 °F - -6.7 °F 87% 29.92 in 10.0 mi Calm Calm - N/A   Overcast
3:16 AM -1.8 °F - -4.9 °F 87% 29.91 in 10.0 mi Calm Calm - N/A   Overcast
3:35 AM -0.4 °F - -3.5 °F 87% 29.90 in 10.0 mi Calm Calm - N/A   Overcast
3:56 AM -0.4 °F - -3.5 °F 87% 29.89 in 10.0 mi Calm Calm - N/A   Overcast
4:16 AM 0.5 °F - -2.4 °F 88% 29.88 in 10.0 mi Calm Calm - N/A   Overcast
4:56 AM 1.9 °F - -1.1 °F 87% 29.87 in 10.0 mi Calm Calm - N/A   Overcast
5:16 AM 1.9 °F - -1.3 °F 86% 29.87 in 10.0 mi Calm Calm - N/A   Overcast
5:35 AM 2.1 °F - -0.6 °F 88% 29.86 in 10.0 mi Calm Calm - N/A   Overcast
5:56 AM 3.2 °F - 0.5 °F 89% 29.85 in 10.0 mi Calm Calm - N/A   Overcast
6:15 AM 3.7 °F - 1.2 °F 89% 29.84 in 10.0 mi Calm Calm - N/A   Overcast
6:36 AM 4.5 °F - 1.9 °F 89% 29.83 in 10.0 mi Calm Calm - N/A   Overcast
6:56 AM 4.1 °F - 1.8 °F 90% 29.83 in 10.0 mi Calm Calm - N/A   Overcast
7:15 AM 4.8 °F - 2.3 °F 89% 29.83 in 10.0 mi Calm Calm - N/A   Overcast
7:36 AM 4.6 °F -2.5 °F 2.1 °F 89% 29.82 in 10.0 mi SE 3.5 mph - N/A   Overcast
7:56 AM 4.6 °F -2.5 °F 2.3 °F 90% 29.81 in 10.0 mi SSE 3.5 mph - N/A   Overcast
8:15 AM 6.4 °F -0.5 °F 4.1 °F 90% 29.81 in 10.0 mi SSE 3.5 mph - N/A   Overcast
8:36 AM 9.9 °F 3.4 °F 7.7 °F 91% 29.81 in 2.0 mi SSW 3.5 mph - N/A Snow Light Snow
8:55 AM 13.8 °F 4.9 °F 11.3 °F 90% 29.80 in 2.5 mi South 5.8 mph - N/A Snow Light Snow
9:16 AM 15.3 °F 5.4 °F 12.9 °F 90% 29.80 in 1.2 mi South 6.9 mph - N/A Snow Light Snow
9:36 AM 15.8 °F 6.1 °F 13.1 °F 89% 29.79 in 1.5 mi South 6.9 mph - N/A Snow Light Snow
9:55 AM 15.8 °F 7.2 °F 13.1 °F 89% 29.79 in 1.0 mi SSW 5.8 mph - N/A Snow Light Snow
10:16 AM 16.5 °F 6.0 °F 14.2 °F 90% 29.78 in 0.5 mi SSW 8.1 mph - N/A Snow Snow
10:36 AM 16.7 °F 5.3 °F 14.0 °F 89% 29.77 in 1.0 mi SW 9.2 mph - N/A Snow Light Snow
10:55 AM 16.7 °F 4.5 °F 13.6 °F 88% 29.77 in 1.0 mi SW 10.4 mph - N/A Snow Light Snow
11:16 AM 16.5 °F 3.0 °F 13.8 °F 89% 29.77 in 0.5 mi SW 12.7 mph 17.3 mph N/A Snow Light Snow
11:35 AM 16.2 °F 3.9 °F 12.7 °F 86% 29.76 in 1.0 mi SW 10.4 mph 18.4 mph N/A Snow Light Snow
11:56 AM 16.3 °F 4.1 °F 13.1 °F 87% 29.76 in 1.2 mi SSW 10.4 mph - N/A Snow Light Snow
12:16 PM 16.7 °F 4.5 °F 13.5 °F 87% 29.75 in 1.2 mi WSW 10.4 mph - N/A Snow Light Snow
12:35 PM 17.2 °F 7.8 °F 13.6 °F 86% 29.74 in 2.0 mi WSW 6.9 mph - N/A Snow Light Snow
12:56 PM 17.6 °F 8.2 °F 13.1 °F 83% 29.73 in 2.5 mi WSW 6.9 mph - N/A Snow Light Snow
1:15 PM 17.6 °F 9.3 °F 12.9 °F 82% 29.73 in 2.0 mi WSW 5.8 mph - N/A Snow Light Snow
1:36 PM 17.6 °F 8.2 °F 12.9 °F 82% 29.73 in 2.5 mi WSW 6.9 mph - N/A Snow Light Snow
1:56 PM 17.6 °F 7.3 °F 12.2 °F 79% 29.73 in 4.0 mi WSW 8.1 mph 17.3 mph N/A Snow Light Snow
2:16 PM 17.8 °F 8.5 °F 13.5 °F 83% 29.72 in 4.0 mi West 6.9 mph - N/A Snow Light Snow
2:36 PM 17.6 °F 7.3 °F 11.1 °F 76% 29.71 in 10.0 mi WSW 8.1 mph - N/A   Overcast
2:55 PM 17.1 °F 6.6 °F 11.1 °F 77% 29.72 in 10.0 mi WSW 8.1 mph 16.1 mph N/A   Overcast
3:16 PM 16.7 °F 5.3 °F 11.5 °F 80% 29.72 in 10.0 mi WSW 9.2 mph 16.1 mph N/A   Overcast
3:36 PM 17.4 °F 7.1 °F 11.3 °F 77% 29.73 in 10.0 mi West 8.1 mph - N/A   Overcast
3:55 PM 17.1 °F 8.7 °F 10.9 °F 77% 29.74 in 10.0 mi West 5.8 mph - N/A Snow Light Snow
4:16 PM 17.1 °F 8.7 °F 11.7 °F 79% 29.74 in 10.0 mi West 5.8 mph - N/A Snow Light Snow
4:36 PM 16.5 °F 5.1 °F 10.9 °F 79% 29.74 in 10.0 mi WNW 9.2 mph - N/A Snow Light Snow
4:55 PM 15.8 °F 6.1 °F 13.1 °F 89% 29.75 in 1.2 mi WNW 6.9 mph - N/A Snow Light Snow
5:16 PM 16.5 °F 8.1 °F 13.8 °F 89% 29.76 in 1.0 mi NW 5.8 mph - N/A Snow Light Snow
5:36 PM 15.1 °F 6.4 °F 10.9 °F 84% 29.77 in 3.0 mi NW 5.8 mph - N/A Snow Light Snow
5:55 PM 13.8 °F 4.9 °F 8.4 °F 79% 29.78 in 10.0 mi NW 5.8 mph - N/A   Scattered Clouds
6:16 PM 13.1 °F 4.0 °F 8.1 °F 80% 29.79 in 10.0 mi WNW 5.8 mph - N/A   Mostly Cloudy
6:35 PM 12.7 °F 5.0 °F 9.1 °F 86% 29.79 in 10.0 mi NW 4.6 mph - N/A   Overcast
6:56 PM 13.1 °F 4.0 °F 10.4 °F 89% 29.80 in 1.5 mi NW 5.8 mph 16.1 mph N/A Snow Light Snow
7:16 PM 13.1 °F 2.8 °F 10.4 °F 89% 29.81 in 2.5 mi WNW 6.9 mph - N/A Snow Light Snow
7:35 PM 12.7 °F 3.6 °F 9.0 °F 85% 29.82 in 7.0 mi WNW 5.8 mph - N/A Snow Light Snow
7:56 PM 11.3 °F 0.7 °F 6.8 °F 82% 29.83 in 10.0 mi WNW 6.9 mph - N/A   Scattered Clouds
8:15 PM 10.2 °F 0.6 °F 6.1 °F 83% 29.83 in 10.0 mi WNW 5.8 mph - N/A   Clear
8:36 PM 9.9 °F 0.2 °F 6.1 °F 85% 29.84 in 7.0 mi West 5.8 mph - N/A Snow Light Snow
8:56 PM 9.3 °F 2.8 °F 5.5 °F 85% 29.84 in 10.0 mi WNW 3.5 mph - N/A   Scattered Clouds
9:15 PM 9.3 °F 1.0 °F 5.2 °F 83% 29.84 in 10.0 mi West 4.6 mph - N/A   Scattered Clouds
9:36 PM 8.6 °F 0.1 °F 5.0 °F 85% 29.85 in 10.0 mi West 4.6 mph - N/A   Scattered Clouds
9:56 PM 8.6 °F -2.6 °F 4.8 °F 85% 29.86 in 10.0 mi West 6.9 mph - N/A   Scattered Clouds
10:15 PM 8.6 °F 0.1 °F 5.0 °F 85% 29.86 in 10.0 mi West 4.6 mph - N/A   Mostly Cloudy
10:36 PM 7.9 °F -0.7 °F 4.1 °F 85% 29.86 in 10.0 mi West 4.6 mph - N/A   Scattered Clouds
10:56 PM 7.7 °F 1.0 °F 4.3 °F 86% 29.87 in 10.0 mi NNW 3.5 mph - N/A   Mostly Cloudy
11:15 PM 7.7 °F -0.9 °F 4.5 °F 87% 29.87 in 7.0 mi NW 4.6 mph - N/A Snow Light Snow
11:36 PM 7.2 °F -1.5 °F 4.1 °F 87% 29.87 in 4.0 mi WNW 4.6 mph - N/A Snow Light Snow
11:56 PM 7.2 °F -1.5 °F 4.1 °F 87% 29.87 in 4.0 mi WNW 4.6 mph - N/A Snow Light Snow